LHA1DQ EGHI-LFRB

Flight info

Callsign LHA1DQ
Flight time 0h 55m
Altitude 12000
Route SAM Q41 THRED/N0327F230 Z171 LELNA DCT DOMOK DCT ANLEV
Aircraft DH8D/M-SDE1E2FGIJ1RWYZ/S

Departure

Time 2026-05-09 09:32
Airport Southampton Airport (EGHI)

Arrival

Time 2026-05-09 10:27
Airport Brest Bretagne airport (LFRB)
Time Latitude Longitude Altitude Speed Heading
2026-05-09 08:51 50.95072 -1.35998 47 ft 0 kts 289°
2026-05-09 09:24 50.95072 -1.35999 47 ft 0 kts 289°
2026-05-09 09:24 50.95069 -1.35985 47 ft 2 kts 289°
2026-05-09 09:24 50.95064 -1.35962 47 ft 2 kts 289°
2026-05-09 09:25 50.95061 -1.35940 47 ft 2 kts 263°
2026-05-09 09:25 50.95067 -1.35919 47 ft 2 kts 227°
2026-05-09 09:25 50.95078 -1.35907 47 ft 0 kts 197°
2026-05-09 09:25 50.95080 -1.35906 47 ft 0 kts 197°
2026-05-09 09:27 50.95071 -1.35911 47 ft 2 kts 197°
2026-05-09 09:28 50.95036 -1.35927 47 ft 7 kts 198°
2026-05-09 09:28 50.94975 -1.35962 47 ft 11 kts 201°
2026-05-09 09:28 50.94903 -1.36006 47 ft 10 kts 201°
2026-05-09 09:28 50.94824 -1.36051 47 ft 13 kts 199°
2026-05-09 09:29 50.94728 -1.36103 47 ft 15 kts 198°
2026-05-09 09:29 50.94657 -1.36135 47 ft 5 kts 188°
2026-05-09 09:29 50.94602 -1.36110 45 ft 8 kts 141°
2026-05-09 09:29 50.94573 -1.36029 45 ft 9 kts 111°
2026-05-09 09:30 50.94565 -1.35995 45 ft 4 kts 106°
2026-05-09 09:30 50.94579 -1.35934 44 ft 7 kts 34°
2026-05-09 09:30 50.94598 -1.35920 44 ft 0 kts 18°
2026-05-09 09:30 50.94599 -1.35920 44 ft 0 kts 18°
2026-05-09 09:31 50.94806 -1.35803 46 ft 76 kts 20°
2026-05-09 09:31 50.95545 -1.35389 83 ft 135 kts 22°
2026-05-09 09:31 50.96388 -1.34825 644 ft 137 kts 26°
2026-05-09 09:32 50.98280 -1.33727 1798 ft 155 kts 21°
2026-05-09 09:32 50.99343 -1.33242 2428 ft 161 kts 19°
2026-05-09 09:32 51.00416 -1.32815 3097 ft 166 kts 19°
2026-05-09 09:32 51.01583 -1.32494 3679 ft 181 kts 360°
2026-05-09 09:33 51.02764 -1.33396 4192 ft 202 kts 315°
2026-05-09 09:33 51.03301 -1.35386 4927 ft 203 kts 271°
2026-05-09 09:33 51.02926 -1.37457 5716 ft 197 kts 232°
2026-05-09 09:33 51.01936 -1.38876 6389 ft 197 kts 208°
2026-05-09 09:34 51.00743 -1.39940 7117 ft 198 kts 201°
2026-05-09 09:34 50.99489 -1.40741 7847 ft 198 kts 198°
2026-05-09 09:34 50.98206 -1.41579 8510 ft 205 kts 202°
2026-05-09 09:36 50.87191 -1.46528 11949 ft 261 kts 194°
2026-05-09 09:36 50.85423 -1.47239 12404 ft 261 kts 194°
2026-05-09 09:36 50.83675 -1.47929 12857 ft 262 kts 194°
2026-05-09 09:37 50.81894 -1.48618 13302 ft 263 kts 194°
2026-05-09 09:37 50.80112 -1.49297 13763 ft 264 kts 194°
2026-05-09 09:37 50.78345 -1.49974 14231 ft 265 kts 194°
2026-05-09 09:37 50.76567 -1.50667 14699 ft 266 kts 194°
2026-05-09 09:38 50.74768 -1.51383 15184 ft 266 kts 194°
2026-05-09 09:38 50.72958 -1.52103 15598 ft 269 kts 194°
2026-05-09 09:38 50.71163 -1.52810 16062 ft 270 kts 194°
2026-05-09 09:38 50.69331 -1.53527 16508 ft 272 kts 194°
2026-05-09 09:39 50.67511 -1.54235 16943 ft 274 kts 194°
2026-05-09 09:39 50.65658 -1.54957 17420 ft 273 kts 194°
2026-05-09 09:39 50.63830 -1.55676 17834 ft 275 kts 194°
2026-05-09 09:39 50.61968 -1.56414 18303 ft 275 kts 194°
2026-05-09 09:40 50.60101 -1.57155 18698 ft 277 kts 194°
2026-05-09 09:40 50.58249 -1.57890 19097 ft 278 kts 194°
2026-05-09 09:40 50.56359 -1.58635 19466 ft 280 kts 194°
2026-05-09 09:40 50.54483 -1.59372 19834 ft 281 kts 194°
2026-05-09 09:41 50.52575 -1.60123 20199 ft 283 kts 195°
2026-05-09 09:41 50.50781 -1.61339 20512 ft 285 kts 210°
2026-05-09 09:41 50.49082 -1.62983 20887 ft 286 kts 212°
2026-05-09 09:41 50.47425 -1.64665 21213 ft 288 kts 213°
2026-05-09 09:42 50.45750 -1.66413 21534 ft 289 kts 212°
2026-05-09 09:42 50.44066 -1.68172 21852 ft 290 kts 212°
2026-05-09 09:42 50.42400 -1.69917 22150 ft 292 kts 213°
2026-05-09 09:42 50.40699 -1.71697 22442 ft 293 kts 213°
2026-05-09 09:43 50.39017 -1.73455 22710 ft 294 kts 213°
2026-05-09 09:43 50.37304 -1.75245 22984 ft 296 kts 213°
2026-05-09 09:43 50.35590 -1.77033 23044 ft 300 kts 212°
2026-05-09 09:43 50.33838 -1.78859 23054 ft 302 kts 212°
2026-05-09 09:44 50.32106 -1.80662 23053 ft 303 kts 212°
2026-05-09 09:44 50.30344 -1.82499 23055 ft 304 kts 213°
2026-05-09 09:44 50.28599 -1.84316 23054 ft 305 kts 213°
2026-05-09 09:44 50.26823 -1.86163 23056 ft 306 kts 212°
2026-05-09 09:45 50.25047 -1.88010 23060 ft 306 kts 212°
2026-05-09 09:45 50.23290 -1.89839 23054 ft 307 kts 213°
2026-05-09 09:45 50.21506 -1.91698 23051 ft 307 kts 213°
2026-05-09 09:45 50.19738 -1.93535 23054 ft 307 kts 212°
2026-05-09 09:46 50.17971 -1.95367 23053 ft 307 kts 212°
2026-05-09 09:46 50.16187 -1.97222 23054 ft 306 kts 213°
2026-05-09 09:46 50.14422 -1.99054 23051 ft 306 kts 213°
2026-05-09 09:46 50.12641 -2.00899 23047 ft 306 kts 213°
2026-05-09 09:47 50.10886 -2.02717 23048 ft 306 kts 213°
2026-05-09 09:47 50.09107 -2.04557 23050 ft 306 kts 213°
2026-05-09 09:47 50.07359 -2.06367 23050 ft 305 kts 213°
2026-05-09 09:47 50.05584 -2.08208 23047 ft 305 kts 212°
2026-05-09 09:48 50.03729 -2.09700 23048 ft 303 kts 199°
2026-05-09 09:48 50.01683 -2.10515 23055 ft 303 kts 192°
2026-05-09 09:48 49.99590 -2.11015 23047 ft 303 kts 185°
2026-05-09 09:48 49.97505 -2.11120 23046 ft 303 kts 179°
2026-05-09 09:49 49.95385 -2.11010 23046 ft 303 kts 178°
2026-05-09 09:49 49.93300 -2.10911 23047 ft 303 kts 179°
2026-05-09 09:49 49.91185 -2.10831 23056 ft 302 kts 180°
2026-05-09 09:49 49.89103 -2.10772 23054 ft 303 kts 180°
2026-05-09 09:50 49.86986 -2.10724 23048 ft 303 kts 180°
2026-05-09 09:50 49.84902 -2.10686 23036 ft 302 kts 180°
2026-05-09 09:50 49.82793 -2.10653 23039 ft 301 kts 180°
2026-05-09 09:50 49.80691 -2.10626 23031 ft 300 kts 180°
2026-05-09 09:51 49.78625 -2.10604 23040 ft 299 kts 180°
2026-05-09 09:51 49.76529 -2.10584 23045 ft 299 kts 180°
2026-05-09 09:51 49.74475 -2.10566 23049 ft 298 kts 180°
2026-05-09 09:51 49.72406 -2.10848 23014 ft 298 kts 196°
2026-05-09 09:52 49.70579 -2.12247 23052 ft 297 kts 210°
2026-05-09 09:52 49.68804 -2.13912 23045 ft 297 kts 210°
2026-05-09 09:52 49.67057 -2.15560 23042 ft 297 kts 210°
2026-05-09 09:52 49.65281 -2.17234 23043 ft 297 kts 210°
2026-05-09 09:53 49.63531 -2.18879 23040 ft 297 kts 210°
2026-05-09 09:53 49.61756 -2.20545 23036 ft 297 kts 210°
2026-05-09 09:53 49.60010 -2.22181 23037 ft 297 kts 210°
2026-05-09 09:53 49.58232 -2.23844 23033 ft 297 kts 210°
2026-05-09 09:54 49.56484 -2.25478 23036 ft 297 kts 210°
2026-05-09 09:54 49.54711 -2.27131 23035 ft 297 kts 210°
2026-05-09 09:54 49.52937 -2.28784 23032 ft 297 kts 210°
2026-05-09 09:54 49.51189 -2.30411 23032 ft 297 kts 210°
2026-05-09 09:55 49.49414 -2.32063 23028 ft 297 kts 210°
2026-05-09 09:55 49.47667 -2.33685 23026 ft 297 kts 210°
2026-05-09 09:55 49.45892 -2.35333 23028 ft 297 kts 210°
2026-05-09 09:55 49.44144 -2.36954 23024 ft 296 kts 210°
2026-05-09 09:56 49.42371 -2.38597 23023 ft 296 kts 210°
2026-05-09 09:56 49.40623 -2.40215 23020 ft 296 kts 210°
2026-05-09 09:56 49.38849 -2.41856 23018 ft 296 kts 210°
2026-05-09 09:56 49.37104 -2.43469 23019 ft 296 kts 210°
2026-05-09 09:57 49.35332 -2.45105 23020 ft 296 kts 210°
2026-05-09 09:57 49.33587 -2.46715 23019 ft 296 kts 210°
2026-05-09 09:57 49.31820 -2.48344 23014 ft 296 kts 210°
2026-05-09 09:57 49.30048 -2.49975 23013 ft 296 kts 210°
2026-05-09 09:58 49.28302 -2.51581 23013 ft 296 kts 210°
2026-05-09 09:58 49.26534 -2.53207 23014 ft 295 kts 210°
2026-05-09 09:58 49.24789 -2.54810 23014 ft 295 kts 210°
2026-05-09 09:58 49.23019 -2.56435 23014 ft 295 kts 210°
2026-05-09 09:59 49.21253 -2.58054 23013 ft 295 kts 210°
2026-05-09 09:59 49.19507 -2.59654 23011 ft 295 kts 210°
2026-05-09 09:59 49.17737 -2.61275 23020 ft 295 kts 210°
2026-05-09 09:59 49.15973 -2.62888 23013 ft 295 kts 210°
2026-05-09 10:00 49.14232 -2.64480 23006 ft 295 kts 210°
2026-05-09 10:00 49.12458 -2.66100 23005 ft 295 kts 209°
2026-05-09 10:00 49.10689 -2.67714 23007 ft 295 kts 209°
2026-05-09 10:00 49.08944 -2.69305 23000 ft 295 kts 209°
2026-05-09 10:01 49.07173 -2.70919 22994 ft 295 kts 209°
2026-05-09 10:01 49.05431 -2.72505 22996 ft 295 kts 209°
2026-05-09 10:01 49.03659 -2.74116 22989 ft 296 kts 209°
2026-05-09 10:01 49.01902 -2.75712 22986 ft 296 kts 209°
2026-05-09 10:02 49.00127 -2.77323 22979 ft 296 kts 209°
2026-05-09 10:02 48.98349 -2.78937 22981 ft 296 kts 209°
2026-05-09 10:02 48.96598 -2.80524 22989 ft 296 kts 209°
2026-05-09 10:02 48.94820 -2.82135 22983 ft 296 kts 209°
2026-05-09 10:03 48.93066 -2.83721 22982 ft 296 kts 209°
2026-05-09 10:03 48.91287 -2.85330 22978 ft 296 kts 209°
2026-05-09 10:03 48.89536 -2.86911 22986 ft 296 kts 209°
2026-05-09 10:03 48.87758 -2.88516 22984 ft 296 kts 209°
2026-05-09 10:04 48.86003 -2.90100 22984 ft 296 kts 208°
2026-05-09 10:04 48.84220 -2.91707 22985 ft 297 kts 208°
2026-05-09 10:04 48.82462 -2.93289 22981 ft 297 kts 208°
2026-05-09 10:04 48.80679 -2.94894 22986 ft 297 kts 208°
2026-05-09 10:05 48.78921 -2.96475 22976 ft 297 kts 208°
2026-05-09 10:05 48.77136 -2.98078 22976 ft 297 kts 208°
2026-05-09 10:05 48.75352 -2.99681 22976 ft 297 kts 208°
2026-05-09 10:05 48.73593 -3.01259 22979 ft 297 kts 208°
2026-05-09 10:06 48.71811 -3.02855 22974 ft 297 kts 208°
2026-05-09 10:06 48.70116 -3.04593 22949 ft 300 kts 220°
2026-05-09 10:06 48.69033 -3.07304 22978 ft 306 kts 248°
2026-05-09 10:06 48.68492 -3.10397 22976 ft 308 kts 253°
2026-05-09 10:07 48.67995 -3.13564 22968 ft 309 kts 253°
2026-05-09 10:07 48.67506 -3.16689 22969 ft 309 kts 253°
2026-05-09 10:07 48.67009 -3.19856 22915 ft 310 kts 253°
2026-05-09 10:07 48.66502 -3.23050 22667 ft 312 kts 253°
2026-05-09 10:08 48.65998 -3.26211 22407 ft 313 kts 253°
2026-05-09 10:08 48.65487 -3.29411 22146 ft 311 kts 253°
2026-05-09 10:08 48.64984 -3.32548 21869 ft 310 kts 252°
2026-05-09 10:08 48.64475 -3.35717 21601 ft 308 kts 253°
2026-05-09 10:09 48.63975 -3.38817 21339 ft 307 kts 252°
2026-05-09 10:09 48.63467 -3.41964 21023 ft 308 kts 252°
2026-05-09 10:09 48.62963 -3.45069 20560 ft 308 kts 252°
2026-05-09 10:09 48.62453 -3.48209 20086 ft 306 kts 253°
2026-05-09 10:10 48.61946 -3.51328 19609 ft 304 kts 252°
2026-05-09 10:10 48.61454 -3.54386 19132 ft 303 kts 253°
2026-05-09 10:10 48.61104 -3.57530 18672 ft 303 kts 259°
2026-05-09 10:10 48.60846 -3.60646 18207 ft 302 kts 259°
2026-05-09 10:11 48.60588 -3.63796 17775 ft 301 kts 259°
2026-05-09 10:11 48.60333 -3.66892 17317 ft 300 kts 258°
2026-05-09 10:11 48.60072 -3.70020 16871 ft 299 kts 259°
2026-05-09 10:11 48.59815 -3.73088 16389 ft 298 kts 259°
2026-05-09 10:12 48.59553 -3.76187 15930 ft 297 kts 259°
2026-05-09 10:12 48.59295 -3.79234 15481 ft 296 kts 259°
2026-05-09 10:12 48.59031 -3.82317 15026 ft 295 kts 259°
2026-05-09 10:12 48.58769 -3.85385 14567 ft 294 kts 259°
2026-05-09 10:13 48.58509 -3.88400 14116 ft 292 kts 259°
2026-05-09 10:13 48.58246 -3.91448 13662 ft 291 kts 259°
2026-05-09 10:13 48.57986 -3.94445 13211 ft 291 kts 259°
2026-05-09 10:13 48.57722 -3.97476 12753 ft 290 kts 259°
2026-05-09 10:14 48.57462 -4.00457 12305 ft 289 kts 259°
2026-05-09 10:14 48.57197 -4.03478 11854 ft 289 kts 259°
2026-05-09 10:14 48.56937 -4.06442 11406 ft 288 kts 260°
2026-05-09 10:14 48.56672 -4.09448 10949 ft 288 kts 260°
2026-05-09 10:15 48.56410 -4.12402 10500 ft 287 kts 260°
2026-05-09 10:15 48.56145 -4.15391 10049 ft 286 kts 260°
2026-05-09 10:15 48.55883 -4.18332 9602 ft 285 kts 260°
2026-05-09 10:15 48.55622 -4.21302 9175 ft 283 kts 260°
2026-05-09 10:16 48.55359 -4.24232 8793 ft 279 kts 260°
2026-05-09 10:16 48.55100 -4.27091 8414 ft 277 kts 260°
2026-05-09 10:16 48.54841 -4.29971 8022 ft 275 kts 260°
2026-05-09 10:16 48.54588 -4.32783 7664 ft 274 kts 260°
2026-05-09 10:17 48.54329 -4.35631 7291 ft 272 kts 260°
2026-05-09 10:17 48.54075 -4.38427 6921 ft 272 kts 260°
2026-05-09 10:17 48.53818 -4.41254 6549 ft 271 kts 259°
2026-05-09 10:17 48.53560 -4.44076 6177 ft 270 kts 259°
2026-05-09 10:18 48.53306 -4.46849 5836 ft 269 kts 259°
2026-05-09 10:18 48.53048 -4.49651 5481 ft 269 kts 259°
2026-05-09 10:18 48.52793 -4.52412 5145 ft 268 kts 259°
2026-05-09 10:18 48.52372 -4.55131 5015 ft 263 kts 249°
2026-05-09 10:19 48.51794 -4.57707 4851 ft 261 kts 248°
2026-05-09 10:19 48.51203 -4.60273 4654 ft 254 kts 247°
2026-05-09 10:19 48.50636 -4.62723 4444 ft 246 kts 248°
2026-05-09 10:19 48.50080 -4.65132 4241 ft 239 kts 246°
2026-05-09 10:20 48.49543 -4.67469 4069 ft 230 kts 246°
2026-05-09 10:20 48.48919 -4.69595 3999 ft 218 kts 228°
2026-05-09 10:20 48.47723 -4.70766 3774 ft 201 kts 186°
2026-05-09 10:20 48.46357 -4.70929 3557 ft 198 kts 175°
2026-05-09 10:21 48.44978 -4.70958 3305 ft 195 kts 174°
2026-05-09 10:21 48.43666 -4.70965 3088 ft 182 kts 174°
2026-05-09 10:21 48.42453 -4.70968 3014 ft 169 kts 173°
2026-05-09 10:21 48.41322 -4.70765 2939 ft 162 kts 151°
2026-05-09 10:22 48.40635 -4.69531 2709 ft 157 kts 108°
2026-05-09 10:22 48.40382 -4.67906 2484 ft 165 kts 101°
2026-05-09 10:22 48.40170 -4.66184 2235 ft 168 kts 100°
2026-05-09 10:22 48.39971 -4.64436 1989 ft 170 kts 99°
2026-05-09 10:23 48.40014 -4.62682 1736 ft 172 kts 78°
2026-05-09 10:23 48.40380 -4.60949 1538 ft 173 kts 73°
2026-05-09 10:23 48.40767 -4.59284 1506 ft 168 kts 75°
2026-05-09 10:23 48.41148 -4.57649 1515 ft 161 kts 75°
2026-05-09 10:24 48.41509 -4.56085 1523 ft 158 kts 73°
2026-05-09 10:24 48.41866 -4.54532 1515 ft 155 kts 75°
2026-05-09 10:24 48.42210 -4.53031 1503 ft 152 kts 73°
2026-05-09 10:24 48.42554 -4.51535 1410 ft 147 kts 73°
2026-05-09 10:25 48.42894 -4.50107 1188 ft 142 kts 71°
2026-05-09 10:25 48.43232 -4.48783 907 ft 137 kts 75°
2026-05-09 10:25 48.43525 -4.47458 702 ft 129 kts 75°
2026-05-09 10:25 48.43800 -4.46227 556 ft 123 kts 73°
2026-05-09 10:26 48.44075 -4.45022 442 ft 121 kts 72°
2026-05-09 10:26 48.44342 -4.43834 329 ft 120 kts 72°
2026-05-09 10:26 48.44598 -4.42691 302 ft 100 kts 71°
2026-05-09 10:26 48.44781 -4.41879 314 ft 54 kts 77°
2026-05-09 10:27 48.44788 -4.41642 318 ft 13 kts 168°
2026-05-09 10:27 48.44729 -4.41620 318 ft 0 kts 162°
2026-05-09 10:28 48.44728 -4.41620 318 ft 0 kts 162°
2026-05-09 10:29 48.44717 -4.41613 318 ft 4 kts 160°
2026-05-09 10:29 48.44669 -4.41632 318 ft 10 kts 221°
2026-05-09 10:29 48.44633 -4.41762 316 ft 18 kts 250°
2026-05-09 10:29 48.44588 -4.41961 312 ft 20 kts 250°
2026-05-09 10:30 48.44531 -4.42124 311 ft 11 kts 193°
2026-05-09 10:30 48.44517 -4.42118 311 ft 0 kts 123°
2026-05-09 10:31 48.44493 -4.42097 312 ft 7 kts 186°
2026-05-09 10:31 48.44459 -4.42160 312 ft 11 kts 239°
2026-05-09 10:31 48.44435 -4.42206 311 ft 2 kts 221°
2026-05-09 10:31 48.44401 -4.42206 311 ft 2 kts 153°
2026-05-09 10:32 48.44385 -4.42196 311 ft 5 kts 155°
2026-05-09 10:32 48.44368 -4.42184 311 ft 0 kts 155°
2026-05-09 10:33 48.44367 -4.42183 311 ft 0 kts 155°